sat.trackr.live / text

‹ back to catalog

GSAT0218 (GALILEO 22)

NORAD 43058 · 2017-079D

PAYLOAD ACTIVE UNKNOWN

§ Identity

Operator
Country
ESA
Launch date
2017-12-12
Launch site
FRGUI
Launch vehicle
Mass (kg)
RCS (m²)

Purposes: earth_obs, nav

External: N2YO · Heavens-Above · Gunter

§ Orbital elements

Epoch: 2026-05-24T02:40:05.063808Z

Period
844.70 min
Inclination
55.0782°
Eccentricity
0.0004251
Mean motion
1.70474790 rev/d
Perigee alt
23,209.5 km
Apogee alt
23,234.7 km
Semi-major
29,600.2 km
B*
0.0000e+0
RAAN
222.1648°
Arg perigee
273.8100°
Mean anomaly
86.1948°
Rev number
5,260

§ Raw data

GSAT0218 (GALILEO 22)1 43058U 17079D   26144.11116972 -.00000013  00000+0  00000+0 0  99922 43058  55.0782 222.1648 0004251 273.8100  86.1948  1.70474790 52605

JSON: /api/v1/satellites/43058 · /tle

For live sub-satellite position, see the globe view (requires WebGL).

§ Visibility from observer

Set your observer location to see the next 7 days of passes ≥ 10°. The values pass through the URL so the page stays shareable.

No JS? Fill the form by hand. The geolocation button needs JavaScript.